Regional Weather Roundup
Issued by NWS

Home | Current Version | Previous Version | Graphics & Text | Print | Product List | Glossary On
Versions: 1 2 3 4 5 6 7 8 9 10 11 12 13 14 15 16 17 18 19 20 21 22 23 24 25 26 27 28 29 30 31 32 33 34 35 36 37 38 39 40 41 42 43 44 45 46 47 48 49 50
172
ASUS45 KCYS 230610
RWRWY

WYOMING REGIONAL WEATHER ROUNDUP
NATIONAL WEATHER SERVICE CHEYENNE WY
1100 PM MST WED FEB 22 2017

NOTE:  "FAIR" INDICATES FEW OR NO CLOUDS BELOW 12,000 FEET
WITH NO SIGNIFICANT WEATHER AND/OR OBSTRUCTIONS TO VISIBILITY.

WYZ001-230700-
YELLOWSTONE NATIONAL PARK

CITY           SKY/WX    TMP DP  RH WIND       PRES   REMARKS
LK YELLOWSTONE   N/A      1  -1  91 NW3       29.74S
6HR MIN TEMP:   0; 6HR MAX TEMP:  24;

W YELLOWSTONE  NOT AVBL

$$
WYZ002>013-054>058-071-098>099-230700-
NORTHERN WYOMING

CITY           SKY/WX    TMP DP  RH WIND       PRES   REMARKS
JACKSON        FAIR      18  16  93 N16       29.70F WCI   3
CODY           FLURRIES  28  26  92 N9        29.82F WCI  19
GREYBULL       FAIR      33  27  78 N14       29.78F WCI  23
6HR MIN TEMP:  32; 6HR MAX TEMP:  42;

WORLAND        FAIR      31  29  92 N5        29.81R WCI  26
6HR MIN TEMP:  29; 6HR MAX TEMP:  42;

SHERIDAN       CLOUDY    31  27  85 SE8       29.86S WCI  23
6HR MIN TEMP:  31; 6HR MAX TEMP:  34; 6HR PCP:  0.08;

BUFFALO        CLOUDY    30  27  88 NE6       29.83F WCI  24
6HR MIN TEMP:  30; 6HR MAX TEMP:  32; 6HR PCP:  0.05;

GILLETTE       CLOUDY    30  26  85 NE13      29.85S WCI  20
6HR MIN TEMP:  30; 6HR MAX TEMP:  37;

HULETT         CLOUDY    30  28  93 E7        29.86F WCI  23
NEWCASTLE      CLOUDY    32  28  86 S10       29.82S WCI  24

$$
WYZ014>020-022>026-101>103-230700-
CENTRAL WYOMING

CITY           SKY/WX    TMP DP  RH WIND       PRES   REMARKS
BIG PINEY      FAIR      17  14  88 S3        29.70S
6HR MIN TEMP:  17; 6HR MAX TEMP:  23;

PINEDALE       CLOUDY    21  14  73 CALM      29.67F
DUBOIS         CLOUDY    18  10  73 NW9       29.69F WCI   6
LANDER         NOT AVBL
RIVERTON       MOCLDY    31  26  82 E10       29.74F WCI  22
6HR MIN TEMP:  31; 6HR MAX TEMP:  39;

CASPER         SNOW      29  28  96 NE15      29.76F VSB 1/2 WCI  18
6HR MIN TEMP:  29; 6HR MAX TEMP:  39; 6HR PCP:  0.03;

DOUGLAS        LGT SNOW  31  30  96 SE3       29.78F VSB 1
6HR MIN TEMP:  32; 6HR MAX TEMP:  42; 6HR PCP: TRACE;


$$
WYZ021-027>030-104>119-230700-
SOUTHERN WYOMING

CITY           SKY/WX    TMP DP  RH WIND       PRES   REMARKS
EVANSTON       LGT SNOW  21  17  84 SW16      29.68F VSB 3/4 WCI   7
6HR MIN TEMP:  21; 6HR MAX TEMP:  27; 6HR PCP:  0.14;

FORT BRIDGER   LGT SNOW  26  26 100 SW10      29.71R VSB 1   WCI  15
ROCK SPRINGS   LGT SNOW  24  22  91 NE8       29.64F FOG     WCI  15
6HR MIN TEMP:  24; 6HR MAX TEMP:  30; 6HR PCP:  0.02;

DIXON            N/A     26  24  93 E7        29.59F WCI  18
RAWLINS        HVY SNOW  27  24  89 NE15      29.65F VSB 1/4 WCI  15
6HR MIN TEMP:  27; 6HR MAX TEMP:  30; 6HR PCP:  0.15;

SARATOGA       LGT SNOW  27  27 100 W9        29.63F WCI  17
LARAMIE        CLOUDY    25  22  88 E3        29.67F
6HR MIN TEMP:  25; 6HR MAX TEMP:  29; 6HR PCP:  0.10;

CHEYENNE       CLOUDY    30  28  92 NE6       29.73F WCI  24
6HR MIN TEMP:  30; 6HR MAX TEMP:  35; 6HR PCP:  0.01;

TORRINGTON     LGT SNOW  32  32 100 E7        29.78F VSB 3/4 WCI  26
6HR MIN TEMP:  32; 6HR MAX TEMP:  49; 6HR PCP:  0.02;

PINE BLUFFS    MOCLDY    32  28  86 N20G29    29.76F WCI  20

$$




USA.gov is the U.S. government's official web portal to all federal, state and local government web resources and services.